Location: Unspecified
(0.0000°N, 0.0000°E)
Time: 10:21:07
(UTC+00:00)

OTV 5 (USA 277) - Pass Details

Date: 27 May 2019
Orbit: 299 x 335 km, 54.5° (Epoch: 13 July)

Event Time Altitude Azimuth Distance (km) Brightness Sun altitude
Rises 16:50:54 0° 322° (NW) 1,976 ? 15.4°
Reaches altitude 10° 16:52:50 10° 318° (NW) 1,159 ? 14.9°
Maximum altitude 16:55:21 56° 238° (WSW) 360 ? 14.4°
Drops below altitude 10° 16:57:54 10° 157° (SSE) 1,173 ? 13.8°
Enters shadow 17:05:11 -15° 149° (SSE) 4,235 ? 12.1°
Exits shadow 17:40:13 -83° 95° (E) 12,987 ? 3.9°
